Tracking 19575 objects as of 19-Feb-2019
HD Live streaming from Space Station
objects crossing your sky now

THORAD DELTA 1 DEB

Track THORAD DELTA 1 DEB now!
10-day predictions


NORAD ID: 8555
Int'l Code: 1974-089CS
Perigee: 1,406.0 km
Apogee: 1,511.2 km
Inclination: 101.3 °
Period: 114.9 minutes
Semi major axis: 7829 km
RCS: 0.0537 m2 (small)
Launch date: November 15, 1974
Source: United States (US)
Launch site: AIR FORCE WESTERN TEST RANGE (AFWTR)

Note: This is SATELLITE DEBRIS
aabbcc
Your satellite tracking list
Your tracking list is empty




NASA's NSSDC Master Catalog

Two Line Element Set (TLE):
1  8555U 74089CS  19049.78266418  .00000145  00000-0  11743-2 0  9994
2  8555 101.2768 241.8338 0067209 240.8337 188.6761 12.53125723 18120
Source of the keplerian elements: AFSPC